Weather History for KLWA - February, 2014

Change the Weather History Date:

Friday, February 28, 2014

  Actual Average (KBIV) Record (KBIV)
Temperature  
Mean Temperature 6 °F 32 °F  
Max Temperature 22 °F 39 °F 65 °F (1976)
Min Temperature -8 °F 24 °F -9 °F (2014)
Degree Days  
Heating Degree Days 58 33  
Month to date heating degree days 1027  
Since 1 July heating degree days 4500  
Cooling Degree Days 0 0  
Month to date cooling degree days 0  
Year to date cooling degree days 0  
Moisture  
Dew Point -3 °F    
Average Humidity 60    
Maximum Humidity 84    
Minimum Humidity 37    
Precipitation  
Precipitation 0.00 in 0.08 in 0.42 in (1950)
Month to date precipitation 1.80  
Year to date precipitation 3.89  
Sea Level Pressure  
Sea Level Pressure 30.15 in    
Wind  
Wind Speed 5 mph (SE)    
Max Wind Speed 14 mph    
Max Gust Speed 22 mph    
Visibility 10 miles    
Events      
T = Trace of Precipitation, MM = Missing Value Source: NWS Daily Summary

Daily Weather History Graph

Daily Weather History Graph

Search for Another Location

Airport or City:

Trip Planner

Search our weather history database for the weather conditions in past years. The results will help you decide how hot, cold, wet, or windy it might be!

Date:

Astronomy

Feb. 28, 2014 Rise Set
Actual Time 7:21 AM EST 6:33 PM EST
Civil Twilight 6:53 AM EST 7:01 PM EST
Nautical Twilight 6:21 AM EST 7:34 PM EST
Astronomical Twilight 5:48 AM EST 8:07 PM EST
Moon 6:36 AM EST (2/28) 6:10 PM EST (2/28)
Length of Visible Light 12h 08m
Length of Day
11h 11m
Waning Crescent, 1% of the Moon is Illuminated
Feb 28
Waning Crescent
Mar 1
New
Mar 8
First Quarter
Mar 16
Full
Mar 23
Last Quarter

Hourly Weather History & Observations

Time (EST) Temp. Windchill Dew Point Humidity Pressure Visibility Wind Dir Wind Speed Gust Speed Precip Events Conditions
12:15 AM -5.8 °F - -9.8 °F 83% 30.20 in 10.0 mi Calm Calm - N/A   Clear
12:35 AM -6.7 °F - -10.5 °F 84% 30.20 in 10.0 mi Calm Calm - N/A   Clear
12:55 AM -7.4 °F - -11.7 °F 81% 30.20 in 10.0 mi Calm Calm - N/A   Clear
1:15 AM -8.0 °F -16.9 °F -11.7 °F 84% 30.20 in 10.0 mi SE 3.5 mph - N/A   Clear
1:35 AM -7.6 °F - -11.6 °F 83% 30.20 in 10.0 mi Calm Calm - N/A   Clear
1:55 AM -8.5 °F -17.6 °F -13.0 °F 81% 30.20 in 10.0 mi East 3.5 mph - N/A   Clear
2:15 AM -7.1 °F - -11.4 °F 81% 30.21 in 10.0 mi Calm Calm - N/A   Clear
2:35 AM -8.0 °F - -12.3 °F 81% 30.21 in 10.0 mi Calm Calm - N/A   Scattered Clouds
2:55 AM -6.7 °F - -11.0 °F 81% 30.21 in 10.0 mi Calm Calm - N/A   Mostly Cloudy
3:15 AM -4.9 °F -13.4 °F -8.5 °F 84% 30.21 in 10.0 mi SE 3.5 mph - N/A   Overcast
3:35 AM -1.7 °F - -5.8 °F 83% 30.21 in 10.0 mi Calm Calm - N/A   Overcast
3:55 AM -1.3 °F -11.4 °F -5.8 °F 81% 30.20 in 10.0 mi SE 4.6 mph - N/A   Overcast
4:15 AM -1.3 °F -11.4 °F -5.8 °F 81% 30.20 in 10.0 mi SE 4.6 mph - N/A   Overcast
4:35 AM -2.4 °F - -7.1 °F 80% 30.21 in 10.0 mi Calm Calm - N/A   Mostly Cloudy
4:55 AM -3.5 °F -11.8 °F -8.0 °F 81% 30.21 in 10.0 mi SE 3.5 mph - N/A   Scattered Clouds
5:15 AM -3.1 °F -11.4 °F -7.6 °F 81% 30.22 in 10.0 mi SE 3.5 mph - N/A   Mostly Cloudy
5:35 AM -2.9 °F -11.2 °F -7.6 °F 80% 30.22 in 10.0 mi SE 3.5 mph - N/A   Overcast
5:55 AM -2.6 °F -10.8 °F -7.6 °F 79% 30.22 in 10.0 mi SE 3.5 mph - N/A   Scattered Clouds
6:15 AM -2.6 °F -12.9 °F -7.8 °F 78% 30.22 in 10.0 mi SE 4.6 mph - N/A   Clear
6:35 AM -2.2 °F -12.5 °F -7.6 °F 78% 30.23 in 10.0 mi SE 4.6 mph - N/A   Clear
6:55 AM -2.2 °F -14.2 °F -7.8 °F 77% 30.22 in 10.0 mi SE 5.8 mph - N/A   Clear
7:15 AM -2.0 °F -15.4 °F -8.0 °F 76% 30.22 in 10.0 mi SE 6.9 mph - N/A   Clear
7:35 AM -2.6 °F -12.9 °F -8.5 °F 76% 30.22 in 10.0 mi ESE 4.6 mph - N/A   Clear
7:55 AM -1.8 °F -13.7 °F -8.0 °F 75% 30.22 in 10.0 mi SE 5.8 mph - N/A   Clear
8:15 AM -0.6 °F -13.6 °F -7.6 °F 72% 30.24 in 10.0 mi SE 6.9 mph - N/A   Clear
8:35 AM 1.0 °F -8.7 °F -7.1 °F 69% 30.25 in 10.0 mi SE 4.6 mph - N/A   Clear
8:55 AM 2.7 °F -9.7 °F -6.7 °F 65% 30.25 in 10.0 mi SE 6.9 mph - N/A   Clear
9:15 AM 4.5 °F -8.7 °F -6.3 °F 61% 30.24 in 10.0 mi SSE 8.1 mph - N/A   Clear
9:35 AM 6.3 °F -4.1 °F -6.5 °F 56% 30.25 in 10.0 mi SE 5.8 mph - N/A   Clear
9:55 AM 7.5 °F -6.0 °F -6.3 °F 53% 30.24 in 10.0 mi SE 9.2 mph - N/A   Clear
10:15 AM 8.6 °F -7.0 °F -6.2 °F 51% 30.24 in 10.0 mi SSE 12.7 mph 19.6 mph N/A   Clear
10:35 AM 9.1 °F -4.0 °F -6.0 °F 50% 30.23 in 10.0 mi SSE 9.2 mph 19.6 mph N/A   Scattered Clouds
10:55 AM 10.0 °F -5.2 °F -6.0 °F 48% 30.23 in 10.0 mi SSE 12.7 mph 20.7 mph N/A   Scattered Clouds
11:15 AM 11.3 °F -4.3 °F -5.3 °F 47% 30.22 in 10.0 mi SSE 13.8 mph 20.7 mph N/A   Clear
11:35 AM 12.2 °F -1.8 °F -4.7 °F 47% 30.22 in 10.0 mi SSE 11.5 mph 21.9 mph N/A   Scattered Clouds
11:55 AM 13.3 °F -1.1 °F -4.4 °F 45% 30.22 in 10.0 mi SE 12.7 mph 18.4 mph N/A   Clear
12:15 PM 14.0 °F -0.8 °F -3.1 °F 47% 30.20 in 7.0 mi SSE 13.8 mph 21.9 mph N/A   Clear
12:35 PM 14.7 °F 2.1 °F -3.6 °F 44% 30.20 in 10.0 mi SE 10.4 mph 18.4 mph N/A   Mostly Cloudy
12:55 PM 15.3 °F 3.5 °F -3.5 °F 44% 30.18 in 10.0 mi SSE 9.2 mph 16.1 mph N/A   Overcast
1:15 PM 16.0 °F 1.7 °F -3.5 °F 42% 30.17 in 10.0 mi SE 13.8 mph 18.4 mph N/A   Overcast
1:35 PM 16.7 °F 4.5 °F -3.1 °F 42% 30.16 in 10.0 mi SE 10.4 mph 18.4 mph N/A   Mostly Cloudy
1:55 PM 17.4 °F 5.4 °F -3.6 °F 39% 30.15 in 10.0 mi SSE 10.4 mph 16.1 mph N/A   Scattered Clouds
2:15 PM 17.8 °F 6.6 °F -3.6 °F 39% 30.14 in 10.0 mi SE 9.2 mph - N/A   Scattered Clouds
2:35 PM 18.9 °F 8.0 °F -3.3 °F 38% 30.12 in 10.0 mi SE 9.2 mph 19.6 mph N/A   Scattered Clouds
2:55 PM 19.4 °F 6.6 °F -2.4 °F 38% 30.11 in 10.0 mi SSE 12.7 mph 18.4 mph N/A   Scattered Clouds
3:15 PM 19.4 °F 7.2 °F -2.9 °F 37% 30.10 in 10.0 mi SSE 11.5 mph 18.4 mph N/A   Scattered Clouds
3:35 PM 19.2 °F 8.4 °F -1.1 °F 41% 30.09 in 10.0 mi South 9.2 mph 18.4 mph N/A   Clear
3:55 PM 20.1 °F 9.5 °F -1.1 °F 39% 30.09 in 10.0 mi SSE 9.2 mph 19.6 mph N/A   Clear
4:15 PM 20.7 °F 10.2 °F -0.4 °F 40% 30.07 in 10.0 mi SSE 9.2 mph 18.4 mph N/A   Clear
4:35 PM 20.5 °F 7.4 °F -0.0 °F 41% 30.07 in 10.0 mi SE 13.8 mph 19.6 mph N/A   Scattered Clouds
4:55 PM 20.5 °F 9.2 °F 0.5 °F 42% 30.06 in 10.0 mi SSE 10.4 mph 18.4 mph N/A   Scattered Clouds
5:15 PM 20.3 °F 8.3 °F 1.6 °F 44% 30.05 in 10.0 mi SE 11.5 mph 17.3 mph N/A   Clear
5:35 PM 20.3 °F 10.6 °F 2.5 °F 46% 30.04 in 10.0 mi SSE 8.1 mph - N/A   Clear
5:55 PM 20.5 °F 11.7 °F 3.0 °F 47% 30.04 in 10.0 mi SE 6.9 mph - N/A   Clear
6:15 PM 20.5 °F 10.0 °F 3.2 °F 47% 30.04 in 10.0 mi SE 9.2 mph - N/A   Clear
6:35 PM 20.3 °F 10.6 °F 4.1 °F 50% 30.03 in 10.0 mi SE 8.1 mph - N/A   Clear
6:55 PM 20.3 °F 12.5 °F 4.5 °F 50% 30.03 in 10.0 mi SE 5.8 mph - N/A   Clear
7:15 PM 20.3 °F 12.5 °F 5.0 °F 52% 30.03 in 10.0 mi SE 5.8 mph - N/A   Clear
7:35 PM 20.3 °F 12.5 °F 5.7 °F 53% 30.03 in 10.0 mi ESE 5.8 mph - N/A   Clear
7:55 PM 20.3 °F 12.5 °F 6.3 °F 55% 30.04 in 10.0 mi ESE 5.8 mph - N/A   Mostly Cloudy
8:15 PM 20.3 °F 11.5 °F 6.6 °F 56% 30.03 in 10.0 mi SE 6.9 mph - N/A   Scattered Clouds
8:35 PM 20.7 °F 13.0 °F 6.6 °F 55% 30.03 in 10.0 mi SE 5.8 mph - N/A   Scattered Clouds
8:55 PM 21.0 °F 13.4 °F 6.8 °F 54% 30.02 in 10.0 mi SE 5.8 mph - N/A   Mostly Cloudy
9:15 PM 21.2 °F 13.6 °F 7.3 °F 55% 30.02 in 10.0 mi SE 5.8 mph - N/A   Scattered Clouds
9:35 PM 21.4 °F 13.8 °F 7.3 °F 55% 30.02 in 10.0 mi SE 5.8 mph - N/A   Clear
9:55 PM 21.6 °F 15.3 °F 7.7 °F 55% 30.02 in 10.0 mi ESE 4.6 mph - N/A   Clear
10:15 PM 21.6 °F - 8.2 °F 57% 30.02 in 10.0 mi Calm Calm - N/A   Scattered Clouds
10:35 PM 21.0 °F 12.4 °F 8.6 °F 59% 30.05 in 10.0 mi North 6.9 mph - N/A   Scattered Clouds
10:55 PM 20.8 °F - 8.6 °F 59% 30.05 in 10.0 mi Calm Calm - N/A   Clear
11:15 PM 20.1 °F - 9.0 °F 62% 30.05 in 10.0 mi Calm Calm - N/A   Scattered Clouds
11:35 PM 19.4 °F - 9.0 °F 64% 30.04 in 10.0 mi Calm Calm - N/A   Scattered Clouds
11:55 PM 19.8 °F 13.2 °F 9.5 °F 64% 30.03 in 10.0 mi East 4.6 mph - N/A   Scattered Clouds